CW4745 Weather Reports


Display with metric or nautical units.
time (UTC)temp
F
wind
direction
speed
MPH
gust
MPH
rain 1hr
in
rain 24hr
in
rain mn
in
humidity
%
barometer
mb
20171211021239 32 192 2.0 3.0 0.00 0.26 0.00 90 983.1
20171211020239 32 192 2.0 4.0 0.00 0.26 0.00 90 982.9
20171211015238 33 194 2.0 4.0 0.00 0.26 0.00 90 983.0
20171211014239 33 207 3.0 3.0 0.00 0.26 0.00 90 983.2
20171211013237 33 246 2.0 3.0 0.00 0.26 0.00 90 982.8
20171211012238 33 247 1.0 1.0 0.00 0.26 0.00 90 982.5
20171211011237 33 247 1.0 2.0 0.00 0.26 0.00 90 982.4
20171211010237 33 247 0.0 2.0 0.00 0.26 0.00 90 982.2
20171211005236 33 247 1.0 2.0 0.00 0.26 0.00 90 982.2
20171211004238 33 247 1.0 2.0 0.00 0.26 0.00 90 982.2
20171211003230 34 247 1.0 1.0 0.00 0.26 0.00 90 982.1
20171211002229 34 247 0.0 2.0 0.00 0.26 0.00 90 982.1
20171211001230 34 247 0.0 3.0 0.00 0.26 0.00 90 982.0
20171210235235 34 247 2.0 3.0 0.00 0.26 0.00 90 981.7
20171210234236 33 247 3.0 4.0 0.00 0.26 0.00 90 981.5
20171210233236 33 247 3.0 5.0 0.00 0.26 0.00 90 981.3
20171210232235 33 260 3.0 4.0 0.00 0.26 0.00 90 980.9
20171210231235 33 266 3.0 4.0 0.00 0.26 0.00 90 980.4
20171210230234 33 277 3.0 4.0 0.00 0.26 0.00 90 980.2
20171210225233 33 294 3.0 4.0 0.00 0.26 0.26 90 979.7
20171210224244 33 301 2.0 3.0 0.00 0.26 0.26 90 979.4
20171210223234 33 298 1.0 4.0 0.00 0.26 0.26 90 979.1
20171210222233 33 315 1.0 3.0 0.00 0.26 0.26 89 978.8
20171210221232 33 315 1.0 5.0 0.00 0.26 0.26 89 978.4
20171210220232 33 321 2.0 4.0 0.00 0.26 0.26 89 978.4
20171210215231 33 326 2.0 4.0 0.00 0.26 0.26 89 978.4
20171210214231 33 314 1.0 3.0 0.00 0.26 0.26 89 978.0
20171210213231 33 311 1.0 5.0 0.00 0.26 0.26 89 977.8
20171210212227 33 340 2.0 7.0 0.00 0.26 0.26 89 977.5
20171210211231 33 353 4.0 10.0 0.00 0.26 0.26 89 977.2
20171210210231 33 328 6.0 12.0 0.01 0.26 0.26 90 976.9
20171210205229 33 355 7.0 14.0 0.01 0.26 0.26 90 976.5
20171210204228 33 342 7.0 17.0 0.01 0.26 0.26 90 976.1
20171210203228 33 355 8.0 15.0 0.01 0.26 0.26 90 975.8
20171210202231 33 359 6.0 13.0 0.01 0.26 0.26 91 975.4
20171210201224 33 29 9.0 15.0 0.01 0.26 0.26 91 975.2
20171210200223 33 23 9.0 17.0 0.00 0.25 0.25 91 974.7
20171210195223 33 13 8.0 15.0 0.00 0.26 0.25 91 974.6
20171210194229 33 355 9.0 16.0 0.00 0.26 0.25 91 974.3
20171210193227 33 9 10.0 16.0 0.00 0.26 0.25 91 974.0
20171210192227 33 5 9.0 17.0 0.00 0.26 0.25 91 973.5
20171210191222 33 23 7.0 15.0 0.00 0.26 0.25 91 973.2
20171210190223 33 358 11.0 17.0 0.00 0.26 0.25 91 972.9
20171210185227 33 18 9.0 16.0 0.01 0.26 0.25 91 972.6
20171210184228 33 5 11.0 18.0 0.01 0.26 0.25 91 972.3
20171210183226 33 19 11.0 18.0 0.01 0.26 0.25 91 971.9
20171210182227 33 5 9.0 16.0 0.01 0.26 0.25 91 971.6
20171210181226 33 36 12.0 20.0 0.01 0.26 0.25 91 971.4
20171210180224 33 13 10.0 18.0 0.02 0.26 0.25 91 971.3
20171210175225 33 20 10.0 17.0 0.01 0.25 0.24 91 970.9
20171210174220 33 16 9.0 18.0 0.01 0.25 0.24 91 970.9
20171210173227 33 39 7.0 20.0 0.01 0.25 0.24 91 970.8
20171210172224 33 44 8.0 20.0 0.01 0.25 0.24 91 970.9
20171210171224 33 66 11.0 18.0 0.01 0.25 0.24 91 971.0
20171210170224 33 30 13.0 18.0 0.01 0.24 0.24 91 970.8
20171210165224 33 56 8.0 18.0 0.01 0.24 0.24 91 970.8
20171210164222 33 67 11.0 20.0 0.01 0.24 0.24 91 970.9
20171210162223 33 99 10.0 19.0 0.02 0.24 0.24 91 971.1
20171210161222 33 53 8.0 23.0 0.02 0.24 0.24 91 971.0
20171210160223 33 97 9.0 19.0 0.02 0.24 0.23 91 971.3
20171210155217 33 64 7.0 21.0 0.02 0.24 0.23 91 971.3
20171210154217 33 74 8.0 22.0 0.02 0.24 0.23 91 971.4
20171210153217 33 19 12.0 21.0 0.03 0.24 0.23 91 971.6
20171210152216 33 75 11.0 21.0 0.03 0.23 0.22 91 971.8
20171210151220 33 71 9.0 20.0 0.03 0.23 0.22 91 972.2
20171210150217 33 67 12.0 26.0 0.03 0.22 0.21 91 972.4
20171210145214 33 82 12.0 21.0 0.04 0.22 0.21 91 972.6
20171210144217 33 60 10.0 26.0 0.03 0.21 0.20 91 972.9
20171210143228 33 49 11.0 22.0 0.03 0.20 0.20 92 973.1
20171210142232 33 71 9.0 19.0 0.03 0.20 0.19 92 973.4
20171210141232 33 77 11.0 20.0 0.04 0.20 0.19 92 973.6
20171210140231 33 74 10.0 19.0 0.04 0.19 0.18 92 973.6
20171210135233 33 54 9.0 17.0 0.04 0.18 0.18 92 974.1
20171210134231 33 98 9.0 18.0 0.05 0.18 0.17 92 974.3
20171210133231 33 84 11.0 22.0 0.05 0.17 0.17 92 974.7
20171210132229 33 102 12.0 20.0 0.05 0.17 0.16 92 975.0
20171210131230 33 71 8.0 21.0 0.05 0.16 0.15 92 975.3
20171210130230 33 63 11.0 16.0 0.05 0.15 0.14 91 975.7
20171210125216 33 97 10.0 18.0 0.05 0.14 0.13 91 975.9
20171210124216 33 81 12.0 20.0 0.05 0.15 0.13 91 976.3
20171210123217 33 60 10.0 17.0 0.05 0.17 0.12 91 976.6
20171210122211 33 68 10.0 18.0 0.05 0.16 0.11 91 977.0
20171210121216 33 81 8.0 16.0 0.04 0.15 0.10 91 977.5
20171210120215 33 99 9.0 16.0 0.03 0.15 0.09 90 978.1
20171210115216 33 108 10.0 18.0 0.02 0.16 0.09 90 978.5
20171210114215 34 104 8.0 15.0 0.02 0.15 0.08 90 978.9
20171210113216 34 102 9.0 15.0 0.02 0.14 0.07 90 979.4
20171210112216 34 78 10.0 18.0 0.01 0.13 0.06 90 979.8
20171210111214 35 87 10.0 14.0 0.01 0.13 0.06 90 980.3
20171210110213 35 88 10.0 15.0 0.01 0.13 0.06 90 980.7
20171210105214 35 156 7.0 15.0 0.01 0.13 0.06 90 981.2
20171210104217 35 92 9.0 16.0 0.00 0.13 0.06 90 981.6
20171210103213 35 92 8.0 15.0 0.01 0.13 0.06 90 982.0
20171210102208 35 104 9.0 15.0 0.02 0.13 0.06 90 982.6
20171210101212 34 125 11.0 16.0 0.02 0.13 0.06 90 983.0
20171210100211 34 108 9.0 14.0 0.02 0.14 0.06 90 983.4
20171210095212 34 106 7.0 15.0 0.02 0.15 0.06 90 984.1
20171210094213 34 139 7.0 12.0 0.02 0.17 0.06 90 984.3
20171210093217 34 116 7.0 12.0 0.02 0.17 0.05 89 985.0
20171210092224 34 119 6.0 14.0 0.01 0.16 0.04 89 985.3
20171210091213 35 125 8.0 16.0 0.00 0.15 0.03 89 985.7
20171210090212 35 136 8.0 15.0 0.00 0.15 0.03 89 986.0
20171210085216 35 139 6.0 15.0 0.00 0.15 0.03 88 986.3
20171210084212 35 140 8.0 16.0 0.00 0.15 0.03 89 986.7
20171210083210 35 161 9.0 15.0 0.00 0.15 0.03 88 987.1
20171210082206 35 125 8.0 17.0 0.00 0.15 0.03 89 987.6
20171210081213 35 144 8.0 15.0 0.00 0.15 0.03 88 988.0
20171210080214 35 142 8.0 15.0 0.00 0.15 0.03 88 988.3
20171210075208 35 126 9.0 15.0 0.00 0.15 0.03 88 988.7
20171210074209 34 147 6.0 14.0 0.00 0.15 0.03 89 988.9
20171210073208 34 157 9.0 17.0 0.00 0.15 0.03 89 989.4
20171210072220 34 146 7.0 14.0 0.00 0.15 0.03 88 989.6
20171210071210 34 175 7.0 12.0 0.00 0.15 0.03 88 990.1
20171210070208 34 175 6.0 16.0 0.01 0.15 0.03 88 990.4
20171210065216 34 146 7.0 13.0 0.01 0.15 0.03 88 990.7
20171210064214 34 170 7.0 12.0 0.01 0.15 0.03 88 991.1
20171210063208 33 142 6.0 12.0 0.02 0.15 0.03 88 991.5
20171210062207 33 146 5.0 10.0 0.02 0.15 0.03 87 991.9
20171210061208 34 143 5.0 10.0 0.02 0.15 0.03 87 992.3
20171210060213 34 126 7.0 12.0 0.01 0.14 0.02 86 992.6
20171210055209 34 154 5.0 10.0 0.01 0.14 0.02 86 992.9
20171210054209 34 146 4.0 12.0 0.01 0.14 0.02 86 993.1
20171210053208 34 144 6.0 12.0 0.00 0.13 0.02 86 993.4
20171210052211 34 140 4.0 13.0 0.00 0.13 0.02 86 993.8
20171210051213 35 153 7.0 13.0 0.00 0.13 0.02 84 994.1
20171210050207 35 185 5.0 15.0 0.00 0.13 0.02 85 994.5
20171210045207 35 173 6.0 17.0 0.00 0.13 0.02 85 994.6
20171210044207 36 130 6.0 13.0 0.00 0.14 0.02 85 994.9
20171210043213 36 152 6.0 10.0 0.00 0.14 0.02 86 995.2
20171210042206 36 153 6.0 14.0 0.00 0.14 0.02 86 995.3
20171210041205 36 140 5.0 12.0 0.00 0.14 0.02 85 995.7
20171210040158 36 140 7.0 12.0 0.00 0.14 0.02 85 996.2
20171210035158 35 157 5.0 10.0 0.01 0.14 0.02 85 996.5
20171210034205 36 147 4.0 10.0 0.01 0.15 0.02 83 996.7
20171210033206 37 147 6.0 10.0 0.02 0.18 0.02 80 997.0
20171210032204 37 195 3.0 9.0 0.02 0.20 0.02 79 996.9
20171210031202 37 252 6.0 20.0 0.02 0.20 0.02 80 997.3
20171210030203 36 225 8.0 16.0 0.02 0.20 0.02 82 997.8
20171210025202 36 253 8.0 20.0 0.01 0.20 0.01 81 998.0
20171210024205 36 230 8.0 18.0 0.01 0.20 0.01 83 998.4
20171210023200 36 219 6.0 18.0 0.00 0.20 0.00 81 998.5
20171210022200 38 208 12.0 21.0 0.00 0.23 0.00 80 998.7